Regional Weather Roundup
Issued by NWS

Home | Current Version | Previous Version | Graphics & Text | Print | Product List | Glossary On
Versions: 1 2 3 4 5 6 7 8 9 10 11 12 13 14 15 16 17 18 19 20 21 22 23 24 25 26 27 28 29 30 31 32 33 34 35 36 37 38 39 40 41 42 43 44 45 46 47 48 49 50
000
ASUS43 KLOT 020012
RWRIL

ILLINOIS REGIONAL WEATHER ROUNDUP
NATIONAL WEATHER SERVICE CHICAGO/ROMEOVILLE IL
700 PM CDT TUE SEP 01 2015

NOTE: "FAIR" INDICATES FEW OR NO CLOUDS BELOW 12,000 FEET WITH NO
SIGNIFICANT WEATHER AND/OR OBSTRUCTIONS TO VISIBILITY.

* THESE STATIONS ARE NOT UNDER NWS QUALITY CONTROL. THEY ALSO MAY NOT
  REPORT WEATHER SUCH AS PRECIPITATION OR FOG.

ILZ001-002-007-009-015-016-024-020100-
NORTHWEST ILLINOIS

CITY           SKY/WX    TMP DP  RH WIND       PRES   REMARKS
MOLINE         CLEAR     85  72  65 S3        29.98R HX  91
6HR MIN TEMP:  85; 6HR MAX TEMP:  91;

STERLING*      CLEAR    N/A N/A N/A CALM      29.97S
SAVANNA*       CLEAR     84  71  63 S6        29.97S HX  89
$$

ILZ003-004-008-010-011-017-018-020100-
NORTH CENTRAL ILLINOIS

CITY           SKY/WX    TMP DP  RH WIND       PRES   REMARKS
ROCKFORD       PTCLDY    83  72  69 SW5       29.99S HX  88
6HR MIN TEMP:  83; 6HR MAX TEMP:  89;

FREEPORT*      CLEAR     81  72  73 SW9       30.00R HX  85
ROCHELLE*      CLEAR     81  73  77 S6        30.01R HX  85
DE KALB*       CLEAR     81  73  77 S7        30.01S HX  85
PERU*          CLEAR     84  70  61 S6        30.01S HX  88
$$

ILZ005-006-012>014-019>023-020100-
NORTHEAST ILLINOIS

CITY           SKY/WX    TMP DP  RH WIND       PRES   REMARKS
CHICAGO-OHARE  CLEAR     85  72  65 SW9       29.99S HX  91
6HR MIN TEMP:  85; 6HR MAX TEMP:  88;

CHICAGO-MIDWAY PTCLDY    87  71  58 S10       30.00S HX  93
6HR MIN TEMP:  85; 6HR MAX TEMP:  89;

AURORA         CLEAR     84  74  71 S7        30.01S HX  91
6HR MIN TEMP:  84; 6HR MAX TEMP:  90;

LANSING*       CLEAR     80  72  76 S6        30.02S HX  85
JOLIET*        CLEAR     85  74  70 S3        30.01S HX  93
WAUKEGAN       CLEAR     82  71  69 SW6       29.98S HX  86
6HR MIN TEMP:  81; 6HR MAX TEMP:  88;

DUPAGE AIRPORT CLEAR     83  72  69 S7        30.00S HX  88
6HR MIN TEMP:  83; 6HR MAX TEMP:  88;

KANKAKEE*      CLEAR     80  74  80 S7        30.04S HX  85
WHEELING       CLEAR     86  71  60 S8        30.00S HX  91
6HR MIN TEMP:  86; 6HR MAX TEMP:  91;

MORRIS*        CLEAR     82  74  77 S7        30.00S HX  88
ROMEOVILLE*    CLEAR     83  70  66 SW8       30.01S HX  87
NORTHERLY ISL    N/A     85  69  58 S8          N/A  HX  89
$$

LMZ740>746-020100-
SOUTHERN LAKE MICHIGAN

STATION/POSITION SKY/WX   TEMP    WIND        PRES    VSBY  WAVE
                          AIR SEA DIR/SP/G                  HT/PER
                          (F)     (DEG/KT/KT) (MB)    (MI)  (FT/S)
SOUTHERN BUOY              74 70  180/ 12/ 12 1014.8F         1/ 3
WILMETTE HARBOR            74 60   20/  6/  8   N/A           1/ 2
HARRISON CRIB              83     190/ 13/ 16   N/A
BURNHAM HARBOR             85     190/  9/ 12   N/A
CALUMET HARBOR             85     210/  8/ 11   N/A
BURNS HARBOR               85     190/  8/ 13 1016.6S
MICHIGAN CITY              83     170/ 10/ 12   N/A
MICHIGAN CITY 6N           77 73  200/  6/  6   N/A           1
ST. JOSEPH                 75 73  220/  4/  4   N/A           1/ 3
$$

ILZ025>027-034>036-040-047-049-050-058-095>099-020100-
WEST-CENTRAL ILLINOIS

CITY           SKY/WX    TMP DP  RH WIND       PRES   REMARKS
QUINCY         PTCLDY    86  67  52 S6        30.01S HX  89
GALESBURG*     CLEAR     82  71  69 S7        30.01R HX  86
MACOMB*        CLEAR     85  69  57 S3        30.03S HX  89
JACKSONVILLE*  CLEAR     87  70  57 S6        30.03R HX  92
PITTSFIELD*    CLEAR     85  71  61 S5        30.04R HX  90
$$

ILZ028>032-037-038-041>044-048-051>054-059>061-020100-
CENTRAL ILLINOIS

CITY           SKY/WX    TMP DP  RH WIND       PRES   REMARKS
PONTIAC        CLEAR     84  75  72 S6        30.03S HX  92
BLOOMINGTON    PTCLDY    79  71  76 SE12      30.05S HX  82
DECATUR        PTCLDY    85  69  58 S10       30.04S HX  89
PEORIA         CLEAR     88  68  51 SW6       30.01S HX  91
6HR MIN TEMP:  88; 6HR MAX TEMP:  95;

LACON*         CLEAR     84  71  65 CALM      30.00S HX  89
LINCOLN*       PTCLDY    89  67  48 SW5       30.00S HX  92
SPRINGFIELD    CLEAR     87  69  54 SW6       30.03R HX  91
6HR MIN TEMP:  87; 6HR MAX TEMP:  93;

TAYLORVILLE    CLEAR     82  70  65 S6        30.04S HX  86
$$

ILZ033-039-045-046-055>057-062-063-020100-
EAST-CENTRAL ILLINOIS

CITY           SKY/WX    TMP DP  RH WIND       PRES   REMARKS
CHAMPAIGN      PTCLDY    80  71  74 S6        30.05S HX  84
RANTOUL*       PTCLDY    81  75  84 SW6       30.06R HX  86
MATTOON        PTCLDY    81  68  64 S7        30.06R HX  84
PARIS*         CLEAR     79  72  78 S3        30.07S HX  82
$$

ILZ079-100>102-020100-
SOUTHWEST ILLINOIS

CITY           SKY/WX    TMP DP  RH WIND       PRES   REMARKS
ALTON          CLEAR     82  70  65 SE6       30.04S HX  86
BELLEVILLE     CLEAR     84  74  72 VRB2      30.04R HX  91
CAHOKIA*       CLEAR     86  70  58 S6        30.04R HX  90
SPARTA*        CLEAR     84  71  63 S5        30.07R HX  89
$$

ILZ064>066-069>071-074>076-080>082-084>086-088>090-092>094-020100-
SOUTH-CENTRAL ILLINOIS

CITY           SKY/WX    TMP DP  RH WIND       PRES   REMARKS
CARBONDALE     PTCLDY    82  70  66 S6        30.07R HX  86
6HR MIN TEMP:  82; 6HR MAX TEMP:  88;

CAIRO*         PTCLDY    81  74  78 CALM      30.07R HX  87
EFFINGHAM*     CLEAR     82  68  62 E5        30.08R HX  85
MARION         MOCLDY    84  72  65 CALM      30.08R HX  89
MT. VERNON     CLEAR     84  70  61 S5        30.07S HX  88
CENTRALIA*     CLEAR     83  74  74 S3        30.05S HX  89
SALEM*         CLEAR     85  70  59 S5        30.06S HX  89
METROPOLIS*    PTCLDY    80  75  86 CALM      30.07S HX  84
$$

ILZ067-068-072-073-078-083-087-091-020100-
SOUTHEAST ILLINOIS

CITY           SKY/WX    TMP DP  RH WIND       PRES   REMARKS
LAWRENCEVILLE  MOCLDY    80  70  71 S5        30.07S HX  83
FLORA*         MOCLDY    84  69  59 CALM      30.07R HX  88
FAIRFIELD*     CLEAR     81  71  72 CALM      30.06R HX  85
HARRISBURG*    PTCLDY    83  70  63 S3        30.08R HX  88
ROBINSON*      MOCLDY    81  71  71 W3        30.08R HX  84
CARMI*         CLEAR     81  72  74 S5        30.07R HX  85
$$

ABBREVIATIONS USED IN REMARKS
   TC - TEMPERATURE IN CELSIUS
  WCI - WIND CHILL INDEX
   HX - HEAT INDEX
  VSB - VISIBILITY
$$




USA.gov is the U.S. government's official web portal to all federal, state and local government web resources and services.